Regional Weather Roundup
Issued by NWS

Home | Current Version | Previous Version | Text Only | Print | Product List | Glossary Off
Versions: 1 2 3 4 5 6 7 8 9 10 11 12 13 14 15 16 17 18 19 20 21 22 23 24 25 26 27 28 29 30 31 32 33 34 35 36 37 38 39 40 41 42 43 44 45 46 47 48 49 50

000
ASUS45 KABQ 301410
RWRNM
WEATHER ROUNDUP FOR NEW MEXICO
NATIONAL WEATHER SERVICE ALBUQUERQUE NM
700 AM MST FRI JAN 30 2015

NOTE: "FAIR" MEANS FEW OR NO CLOUDS BELOW 12,000 FEET AGL WITH NO
       SIGNIFICANT WEATHER OR OBSTRUCTIONS TO VISION.

      THIS PRODUCT IS RELEASED AS TWO VERSIONS.  ONE VERSION NEAR
      THE TOP OF THE HOUR CONTAINING PRELIMINARY DATA FROM ALBUQUERQUE
      AND OTHER STATIONS.  A FINAL VERSION WITH ADDITIONAL DATA IS
      ISSUED ABOUT 10 MINUTES AFTER THE HOUR.

NMZ501-503-504-510>518-301500-
NORTHWEST PLATEAU/NORTHCENTRAL MOUNTAINS

CITY           SKY/WX    TMP DP  RH WIND       PRES   REMARKS
FARMINGTON     LGT SNOW  32  31  96 E9        30.21F FOG     WCI  24
LOS ALAMOS     LGT SNOW  27  27 100 SW10      30.31S WCI  17
SANTA FE       LGT SNOW  30  24  78 S7        30.30F WCI  23
TAOS           CLOUDY    27  23  86 CALM      30.32S VSB 1/2
ANGEL FIRE     LGT SNOW  27  24  89 N5        30.30F WCI  22

$$
NMZ402-403-502-505>509-301500-
WESTCENTRAL MOUNTAINS/SOUTHWEST MOUNTAINS

CITY           SKY/WX    TMP DP  RH WIND       PRES   REMARKS
GALLUP         FLURRIES  33  30  88 NE3       30.16R
GRANTS         LGT SNOW  30  29  94 S18G28    30.22F WCI  18
SILVER CITY    LGT RAIN  39  37  93 E17       30.20F WCI  30

$$
NMZ407-409-411-412-301500-
SOUTHERN DESERTS

CITY           SKY/WX    TMP DP  RH WIND       PRES   REMARKS
LORDSBURG      CLOUDY    41  37  87 SE26G36   30.13S
DEMING         LGT RAIN  40  39  97 E16       30.20F WCI  31
LAS CRUCES     CLOUDY    40  38  91 SE9       30.23F WCI  34
HOLLOMAN AFB   LGT RAIN  40  40  99 SW6       30.26S
ALAMOGORDO     LGT RAIN  39  39 100 NW7       30.28S WCI  34
T OR C         LGT RAIN  39  37  92 N9        30.24S WCI  33

$$
NMZ519>523-301500-
CENTRAL VALLEYS/CENTRAL HIGHLANDS

CITY           SKY/WX    TMP DP  RH WIND       PRES   REMARKS
ALBUQUERQUE    LGT SNOW  33  30  88 E14       30.29R VSB 3/4 WCI  23
DOUBLE EAGLE   LGT SNOW  30  28  93 N9        30.29S WCI  22
MORIARTY ARPT  MIX PCPN  30  27  89 SE6       30.34S WCI  24
CLINES CORNERS LGT SNOW  27  24  89 E15       30.28S FOG     WCI  15
BELEN          LGT SNOW  32  32 100 NW5       30.29S WCI  27
SOCORRO        RAIN      35  33  94 CALM      30.28F

$$
NMZ524>526-539-540-301500-
SOUTHCENTRAL MOUNTAINS

CITY           SKY/WX    TMP DP  RH WIND       PRES   REMARKS
RUIDOSO        LGT RAIN  28  27  93 SE9       30.34S WCI  20

$$
NMZ527>531-301500-
NORTHEAST HIGHLANDS/NORTHEAST PLAINS

CITY           SKY/WX    TMP DP  RH WIND       PRES   REMARKS
LAS VEGAS      LGT SNOW  26  24  92 SE3       30.33S FOG
RATON          CLOUDY    29  28  96 S9        30.32F WCI  20
CLAYTON        CLOUDY    34  29  82 S7        30.35F WCI  28

$$
NMZ532>537-301500-
EASTCENTRAL PLAINS

CITY           SKY/WX    TMP DP  RH WIND       PRES   REMARKS
TUCUMCARI      CLOUDY    39  31  72 S7        30.38F WCI  34
CANNON AFB     CLOUDY    37  28  70 SE5       30.39F WCI  33
CLOVIS AIRPORT CLOUDY    37  27  65 SE6       30.40F WCI  33

$$
NMZ028-029-538-301500-
SOUTHEAST PLAINS

CITY           SKY/WX    TMP DP  RH WIND       PRES   REMARKS
ROSWELL        CLOUDY    42  30  62 SE3       30.39R
ARTESIA        CLOUDY    41  34  75 S5        30.41R
CARLSBAD       LGT RAIN  42  31  64 E8        30.39R
HOBBS          LGTSLEET  37  28  70 NE10      30.41S WCI  30


$$


USA.gov is the U.S. government's official web portal to all federal, state and local government web resources and services.